This is the latest recevied weather packets stored in our database for station/object K2ATL. If no packets are shown the sender has not sent any weather packets the latest 10 day(s).
| Time | Temp. | Humidity | Pressure | Rain* | Wind** | Luminosity | Snow |
|---|---|---|---|---|---|---|---|
| 1777252170 | 18.89° C | 80% | 1100 hPa | 0 mm | - | 0 W/m² | - |
| 1777251867 | 18.89° C | 81% | 1099.7 hPa | 0 mm | - | 0 W/m² | - |
| 1777251564 | 18.89° C | 81% | 1099.5 hPa | 0 mm | - | 0 W/m² | - |
| 1777251261 | 18.89° C | 80% | 1099.5 hPa | 0 mm | - | 0 W/m² | - |
| 1777250956 | 19.44° C | 79% | 1099.4 hPa | 0 mm | - | 0 W/m² | - |
| 1777250653 | 19.44° C | 77% | 1099.4 hPa | 0 mm | - | 0 W/m² | - |
| 1777250349 | 20° C | 76% | 1099.3 hPa | 0 mm | - | 0 W/m² | - |
| 1777250044 | 20° C | 75% | 1099.2 hPa | 0 mm | - | 0 W/m² | - |
| 1777249741 | 19.44° C | 77% | 1099.2 hPa | 0 mm | - | 1 W/m² | - |
| 1777249437 | 20° C | 76% | 1099.2 hPa | 0 mm | - | 1 W/m² | - |
| 1777249135 | 20° C | 76% | 1099.3 hPa | 0 mm | - | 3 W/m² | - |
| 1777248830 | 20° C | 75% | 1099 hPa | 0 mm | - | 4 W/m² | - |
| 1777248527 | 20° C | 75% | 1099.3 hPa | 0 mm | - | 6 W/m² | - |
| 1777248224 | 20° C | 75% | 1099.2 hPa | 0 mm | - | 8 W/m² | - |
| 1777247924 | 20° C | 76% | 1099 hPa | 0 mm | - | 10 W/m² | - |
| 1777247619 | 20° C | 75% | 1098.9 hPa | 0 mm | - | 12 W/m² | - |
| 1777247317 | 20.56° C | 74% | 1099 hPa | 0 mm | - | 13 W/m² | - |
| 1777247015 | 20.56° C | 74% | 1098.9 hPa | 0 mm | - | 16 W/m² | - |
| 1777246711 | 20.56° C | 75% | 1098.8 hPa | 0 mm | - | 19 W/m² | - |
| 1777246407 | 20.56° C | 74% | 1098.8 hPa | 0 mm | - | 23 W/m² | - |
| 1777246105 | 20.56° C | 75% | 1098.9 hPa | 0 mm | - | 29 W/m² | - |
| 1777245802 | 20.56° C | 77% | 1098.8 hPa | 0 mm | - | 44 W/m² | - |
| 1777245500 | 20.56° C | 77% | 1098.7 hPa | 0 mm | - | 60 W/m² | - |
| 1777245196 | 21.11° C | 78% | 1098.9 hPa | 0 mm | - | 78 W/m² | - |
| 1777244891 | 21.11° C | 76% | 1098.8 hPa | 0 mm | - | 78 W/m² | - |
* Rain latest hour (hover to see other rain measurements)
** Current wind speed in m/s (hover to see current wind gust speed)